Regional Weather Roundup
Issued by NWS

Home | Current Version | Previous Version | Graphics & Text | Print | Product List | Glossary On
Versions: 1 2 3 4 5 6 7 8 9 10 11 12 13 14 15 16 17 18 19 20 21 22 23 24 25 26 27 28 29 30 31 32 33 34 35 36 37 38 39 40 41 42 43 44 45 46 47 48 49 50
000
ASUS43 KLMK 220102
RWRKY
KENTUCKY REGIONAL WEATHER ROUNDUP
NATIONAL WEATHER SERVICE LOUISVILLE KY
900 PM EDT TUE OCT 21 2014

NOTE "FAIR" INDICATES FEW OR NO CLOUDS BELOW 12,000 FEET
WITH NO SIGNIFICANT WEATHER AND/OR OBSTRUCTIONS TO VISIBILITY.

KYZ001>023-026-027-061>063-070>075-220200-
WESTERN AND SOUTH CENTRAL KENTUCKY

CITY           SKY/WX    TMP DP  RH WIND       PRES   REMARKS
PADUCAH        CLEAR     56  46  69 NE7       30.11R
HENDERSON      CLEAR    N/A N/A N/A NE7       30.14R
OWENSBORO      CLEAR     55  42  61 NE6       30.14R
HOPKINSVILLE   CLEAR     55  46  71 NE10      30.11R
BOWLING GREEN  PTCLDY    56  42  59 N8        30.12R
GLASGOW        NOT AVBL
$$

KYZ024-025-028>034-038-045-046-053-220200-
NORTH CENTRAL KENTUCKY

CITY           SKY/WX    TMP DP  RH WIND       PRES   REMARKS
LOUISVILLE/SDF CLOUDY    57  42  57 N8        30.13R
LOUISVILLE/LOU CLOUDY    55  43  63 CALM      30.14R
FORT KNOX      NOT AVBL
$$

KYZ035>037-039>044-047>052-055>060-089>105-220200-
NORTHEAST KENTUCKY

CITY           SKY/WX    TMP DP  RH WIND       PRES   REMARKS
LEXINGTON      CLOUDY    53  41  63 N5        30.12R
COVINGTON      MOCLDY    50  40  68 N8        30.13R
FRANKFORT      CLOUDY    53  40  61 CALM      30.12R
$$

KYZ054-064>069-076>088-106>120-220200-
SOUTHEAST KENTUCKY

CITY           SKY/WX    TMP DP  RH WIND       PRES   REMARKS
JACKSON        CLOUDY    49  39  68 VRB3      30.10R
LONDON         CLOUDY    53  39  59 N7        30.11R
SOMERSET       CLOUDY    50  39  66 NE7       30.12S
MIDDLESBORO    NOT AVBL
MONTICELLO     MOCLDY    52  42  68 N7        30.13R
$$




USA.gov is the U.S. government's official web portal to all federal, state and local government web resources and services.